Other Public Products
Issued by NWS Grand Forks, ND

Home | Current Version | Previous Version | Text Only | Print | Product List | Glossary On
Versions: 1 2 3 4 5 6 7 8 9 10 11 12 13 14 15 16 17 18 19 20 21 22 23 24 25 26 27 28 29 30 31 32 33 34 35 36 37 38 39 40 41 42 43 44 45 46 47 48 49 50
000
FPUS83 KFGF 300031
OPUFGF
PRAIRIE TO PINES WEATHER ROUNDUP
NATIONAL WEATHER SERVICE EASTERN NORTH DAKOTA/GRAND FORKS ND
700 PM CDT SAT AUG 29 2015

 **SATELLITE DATA USED TO AUGMENT SKY COVER AT AUTOMATED STATIONS**
 *****  WEATHER ACROSS EASTERN NORTH DAKOTA  *****

CITY           SKY/WX    TMP DP  RH WIND       PRES   REMARKS
GRAND FORKS    PTSUNNY   78  69  73 S12       29.82F
6HR MIN TEMP:  75; 6HR MAX TEMP:  81;

GRAND FORKS AF PTSUNNY   78  69  72 SW8       29.83S
GRAND CITY NWS   N/A     77 N/A N/A S13         N/A
BUXTON         NOT AVBL
DEVILS LAKE    MOSUNNY   79  64  61 S9        29.81F
6HR MIN TEMP:  75; 6HR MAX TEMP:  82;

FARGO          PTSUNNY   81  67  62 S10       29.86F
6HR MIN TEMP:  79; 6HR MAX TEMP:  84;

WAHPETON ARPT  PTCLDY    73  63  68 S10       29.91S
$$

 *****  WEATHER ACROSS CENTRAL AND WESTERN NORTH DAKOTA  *****

CITY           SKY/WX    TMP DP  RH WIND       PRES   REMARKS
JAMESTOWN      MOSUNNY   81  72  74 S7        29.85F
6HR MIN TEMP:  77; 6HR MAX TEMP:  84;

BISMARCK       MOSUNNY   86  62  44 SE8       29.83F HAZE
6HR MIN TEMP:  84; 6HR MAX TEMP:  93;

MINOT          MOSUNNY   86  53  32 S6        29.78F HAZE
6HR MIN TEMP:  85; 6HR MAX TEMP:  94;

MINOT AFB      MOSUNNY   89  54  29 S6        29.76F
6HR MIN TEMP:  85; 6HR MAX TEMP:  95;

GARRISON         N/A     84  57  39 S7        29.81F
6HR MIN TEMP:  82; 6HR MAX TEMP:  94;

WILLISTON      PTSUNNY   92  47  21 CALM      29.78F HAZE
6HR MIN TEMP:  87; 6HR MAX TEMP:  94;

DICKINSON      MOSUNNY   92  42  17 SW8       29.82F
6HR MIN TEMP:  92; 6HR MAX TEMP:  99;

HETTINGER      SUNNY     93  44  18 S9        29.88F
6HR MIN TEMP:  91; 6HR MAX TEMP:  97;

$$

 *****  OTHER OBSERVATIONS NORTHEAST NORTH DAKOTA  *****

CITY           SKY/WX    TMP DP  RH WIND       PRES   REMARKS
WALHALLA       FAIR      77  75  94 MISG      29.77F
LANGDON        FAIR      79  63  57 S13G18    29.81F
CAVALIER       FAIR      79  72  78 S9        29.78F
GRAFTON        FAIR      75  72  88 S9        29.81F
CANDO          FAIR      79  64  61 S10       29.81F
FORT TOTTEN      N/A     80  65  59 S7        29.95S
ROLLA            N/A     77  59  53 SW9       29.82R
RUGBY          FAIR      81  63  54 S8        29.79F HAZE
 ***** THE ABOVE OBSERVATIONS ARE NON NWS ARE NOT QUALITY
        CONTROLLED AND MAY MIS-REPORT RAIN FOR SNOW...
$$

 *****  OTHER OBSERVATIONS SOUTHEAST NORTH DAKOTA *****

CITY           SKY/WX    TMP DP  RH WIND       PRES   REMARKS
COOPERSTOWN    NOT AVBL
VALLEY CITY    FAIR      77  75  94 S9        29.87S
OAKES            N/A     77  73  88 S8        29.88F
GWINNER          N/A     77  73  88 S6        29.89S
SHEYENNE NWR     N/A     81  70  70 S6        29.95S
BUFFALO        NOT AVBL
WYNDMERE         N/A     79  70  73 SE9         N/A
 ***** THE ABOVE OBSERVATIONS ARE NON NWS ARE NOT QUALITY
       CONTROLLED AND MAY MIS-REPORT RAIN FOR SNOW...
$$

  *****  WEATHER ACROSS NORTHERN MINNESOTA  *****

CITY           SKY/WX    TMP DP  RH WIND       PRES   REMARKS
FLAG ISLAND    CLOUDY    68  64  88 SE10      29.84F
WARROAD        CLOUDY    72  66  83 SE3       29.86F
ROSEAU         CLOUDY    75  70  83 S5        29.85S
HALLOCK        MOSUNNY   77  72  83 S12       29.80F
THF RVR FALLS  CLOUDY   N/A N/A N/A S8        29.86S
HALSTAD        NOT AVBL
FOSSTON        PTSUNNY   73  64  73 S9        29.90R
BAUDETTE       CLOUDY    72  67  84 SE7       29.87F
6HR MIN TEMP:  70; 6HR MAX TEMP:  74;

WASKISH        MOCLDY    72  66  83 SE3       29.89F
CROOKSTON      PTSUNNY   79  70  73 S12       29.85F
$$
  *****  WEATHER ACROSS CENTRAL AND WEST MINNESOTA  *****

CITY           SKY/WX    TMP DP  RH WIND       PRES   REMARKS
BEMIDJI        PTSUNNY   72  65  80 S9        29.91S
PARK RAPIDS    MOSUNNY   73  62  68 S14       29.94F
6HR MIN TEMP:  73; 6HR MAX TEMP:  79;

WADENA         PTSUNNY   70  63  78 S7        29.95F
DETROIT LAKES  MOSUNNY   72  63  73 S9        29.93F
MOORHEAD       PTSUNNY   77  68  73 S14       29.88S
FERGUS FALLS   MOSUNNY   72  64  78 S9        29.92F
ELBOW LAKE     FAIR      71  64  80 SE10      29.94F
6HR MIN TEMP:  71; 6HR MAX TEMP:  76;

MORRIS MN      PTSUNNY   72  66  83 SE9       29.94S
STAPLES        PTSUNNY   68  61  77 S8        29.97F
WHEATON        MOSUNNY   72  64  78 SE9       29.93S
$$
  *****  WEATHER ELSEWHERE ACROSS MINNESOTA  *****

CITY           SKY/WX    TMP DP  RH WIND       PRES   REMARKS
DULUTH         MOCLDY    71  63  75 SW8       29.99F
6HR MIN TEMP:  71; 6HR MAX TEMP:  74;

INTRNTL FALLS  MOCLDY    69  65  86 SE7       29.91F
6HR MIN TEMP:  69; 6HR MAX TEMP:  73;

ELY            CLOUDY    68  63  83 CALM      29.97F
CLOQUET        PTCLDY    70  61  73 S5        29.99S
BRAINERD       MOCLDY    70  62  76 S7        29.98F
6HR MIN TEMP:  70; 6HR MAX TEMP:  75;

HIBBING        MOCLDY    71  63  75 S6        29.97F
6HR MIN TEMP:  68; 6HR MAX TEMP:  74;

ALEXANDRIA     PTSUNNY   71  62  73 S12       29.98F
6HR MIN TEMP:  70; 6HR MAX TEMP:  75;

SAINT CLOUD    MOCLDY    69  63  81 S6        30.00S
6HR MIN TEMP:  69; 6HR MAX TEMP:  74;

MINNEAPOLIS    MOCLDY    73  62  68 S5        30.02S
6HR MIN TEMP:  67; 6HR MAX TEMP:  74;

$$

  *****  WEATHER ACROSS SOUTH DAKOTA  *****

CITY           SKY/WX    TMP DP  RH WIND       PRES   REMARKS
SIOUX FALLS    PTSUNNY   72  64  76 S10       29.99F
6HR MIN TEMP:  68; 6HR MAX TEMP:  75;

BROOKINGS      SUNNY     72  63  73 S8        30.00S
WATERTOWN      SUNNY     74  67  78 S9        29.95F
6HR MIN TEMP:  74; 6HR MAX TEMP:  79;

HURON          SUNNY     79  70  74 S10       29.92S
6HR MIN TEMP:  78; 6HR MAX TEMP:  83;

SISSETON         N/A     78  68  71 S6        29.90S
ABERDEEN       SUNNY     81  73  76 S10       29.89F
6HR MIN TEMP:  78; 6HR MAX TEMP:  84;

MITCHELL       SUNNY     78  69  73 S10       29.95F
PIERRE         SUNNY     87  65  47 SE10      29.87F
6HR MIN TEMP:  83; 6HR MAX TEMP:  94;

MOBRIDGE       SUNNY     86  66  51 SE8       29.85F
RAPID CITY     SUNNY     86  55  34 SE9       29.93F
6HR MIN TEMP:  86; 6HR MAX TEMP:  93;

$$

  *****  SOME WEATHER IN NEARBY STATES *****

CITY           SKY/WX    TMP DP  RH WIND       PRES   REMARKS
GLASGOW MT     HAZE      90  41  18 E15       29.73F VSB 1/2
6HR MIN TEMP:  78; 6HR MAX TEMP:  92;

GREAT FALLS MT LGT RAIN  74  54  49 W12       29.74R
6HR MIN TEMP:  70; 6HR MAX TEMP:  92; 6HR PCP:  0.01;

CHEYENNE WY    SUNNY     83  38  20 S9        30.18F
6HR MIN TEMP:  82; 6HR MAX TEMP:  85;

SCOTTSBLUFF NE SUNNY     88  42  20 SE13      30.02F HAZE
6HR MIN TEMP:  83; 6HR MAX TEMP:  94;

OMAHA NE       CLOUDY    72  64  76 N3        30.03S
6HR MIN TEMP:  65; 6HR MAX TEMP:  73;

DES MOINES IA  CLOUDY    71  64  78 N6        30.02S
6HR MIN TEMP:  71; 6HR MAX TEMP:  73;

DAVENPORT IA   CLOUDY    70  67  90 NE3       30.02R
6HR MIN TEMP:  70; 6HR MAX TEMP:  74;

CHICAGO IL     LGT RAIN  68  66  93 N3        30.00S FOG
6HR MIN TEMP:  67; 6HR MAX TEMP:  70; 6HR PCP:  0.08;

EAU CLAIRE WI  MOCLDY    71  61  70 CALM      30.03F
6HR MIN TEMP:  64; 6HR MAX TEMP:  72;

LA CROSSE WI   CLOUDY    70  61  73 E3        30.03F
6HR MIN TEMP:  68; 6HR MAX TEMP:  75;

$$

  *****  SOME NATIONAL WEATHER *****

CITY           SKY/WX    TMP DP  RH WIND       PRES   REMARKS
LA GUARDIA NY  PTCLDY    77  59  53 S14G21    30.10S


USA.gov is the U.S. government's official web portal to all federal, state and local government web resources and services.